TimeCST,TemperatureF,Dew PointF,Humidity,Sea Level PressureIn,VisibilityMPH,Wind Direction,Wind SpeedMPH,Gust SpeedMPH,PrecipitationIn,Events,Conditions,WindDirDegrees,DateUTC
12:15 AM,46.4,32.0,57,29.60,10.0,SW,20.7,28.8,N/A,,Clear,220,2011-11-15 06:15:00
12:35 AM,46.4,32.0,57,29.61,10.0,WSW,15.0,24.2,N/A,,Scattered Clouds,240,2011-11-15 06:35:00
12:55 AM,44.6,32.0,61,29.62,10.0,WSW,9.2,-,N/A,,Scattered Clouds,250,2011-11-15 06:55:00
1:15 AM,44.6,32.0,61,29.60,10.0,SW,10.4,-,N/A,,Scattered Clouds,230,2011-11-15 07:15:00
1:35 AM,46.4,32.0,57,29.59,10.0,SW,20.7,25.3,N/A,,Clear,230,2011-11-15 07:35:00
1:55 AM,46.4,32.0,57,29.58,10.0,SW,19.6,26.5,N/A,,Clear,230,2011-11-15 07:55:00
2:55 AM,44.6,32.0,61,29.59,10.0,WSW,15.0,19.6,N/A,,Clear,240,2011-11-15 08:55:00
3:15 AM,46.4,32.0,57,29.59,10.0,WSW,15.0,21.9,N/A,,Clear,250,2011-11-15 09:15:00
3:35 AM,46.4,32.0,57,29.60,10.0,WSW,13.8,19.6,N/A,,Clear,250,2011-11-15 09:35:00
3:55 AM,44.6,32.0,61,29.60,10.0,WSW,12.7,20.7,N/A,,Clear,250,2011-11-15 09:55:00
4:15 AM,44.6,32.0,61,29.60,10.0,WSW,16.1,19.6,N/A,,Clear,250,2011-11-15 10:15:00
4:35 AM,42.8,32.0,66,29.60,10.0,WSW,12.7,-,N/A,,Clear,250,2011-11-15 10:35:00
4:55 AM,42.8,32.0,66,29.63,10.0,WSW,12.7,-,N/A,,Clear,250,2011-11-15 10:55:00
5:15 AM,42.8,32.0,66,29.64,10.0,West,10.4,-,N/A,,Clear,260,2011-11-15 11:15:00
5:55 AM,41.0,30.2,65,29.66,10.0,WNW,10.4,16.1,N/A,,Clear,290,2011-11-15 11:55:00
7:15 AM,37.4,28.4,70,29.68,10.0,WNW,6.9,-,N/A,,Clear,300,2011-11-15 13:15:00
7:35 AM,35.6,28.4,75,29.69,10.0,WNW,6.9,-,N/A,,Clear,300,2011-11-15 13:35:00
7:55 AM,37.4,28.4,70,29.70,10.0,NNW,9.2,-,N/A,,Clear,330,2011-11-15 13:55:00
8:15 AM,39.2,28.4,65,29.70,10.0,NNW,11.5,-,N/A,,Clear,330,2011-11-15 14:15:00
8:55 AM,41.0,26.6,57,29.72,10.0,NNW,9.2,-,N/A,,Clear,340,2011-11-15 14:55:00
9:15 AM,41.0,26.6,57,29.73,10.0,NNW,9.2,-,N/A,,Clear,340,2011-11-15 15:15:00
9:35 AM,42.8,28.4,57,29.75,10.0,North,10.4,-,N/A,,Clear,350,2011-11-15 15:35:00
9:55 AM,42.8,28.4,57,29.76,10.0,NNW,10.4,-,N/A,,Clear,340,2011-11-15 15:55:00
10:15 AM,42.8,28.4,57,29.77,10.0,North,11.5,16.1,N/A,,Clear,350,2011-11-15 16:15:00
10:35 AM,44.6,28.4,53,29.79,10.0,NNW,13.8,18.4,N/A,,Clear,340,2011-11-15 16:35:00
10:55 AM,46.4,28.4,50,29.80,10.0,NNW,15.0,20.7,N/A,,Clear,340,2011-11-15 16:55:00
11:15 AM,46.4,28.4,50,29.81,10.0,NNW,12.7,19.6,N/A,,Clear,340,2011-11-15 17:15:00
11:35 AM,50.0,28.4,43,29.82,10.0,North,12.7,20.7,N/A,,Clear,350,2011-11-15 17:35:00
11:55 AM,51.8,26.6,38,29.81,10.0,North,16.1,23.0,N/A,,Clear,360,2011-11-15 17:55:00
12:15 PM,53.6,24.8,33,29.81,10.0,North,17.3,23.0,N/A,,Clear,350,2011-11-15 18:15:00
12:35 PM,53.6,24.8,33,29.81,10.0,North,18.4,23.0,N/A,,Clear,360,2011-11-15 18:35:00
12:55 PM,53.6,23.0,30,29.80,10.0,North,20.7,24.2,N/A,,Clear,360,2011-11-15 18:55:00
1:15 PM,53.6,24.8,33,29.81,10.0,North,18.4,24.2,N/A,,Clear,350,2011-11-15 19:15:00
1:35 PM,53.6,24.8,33,29.81,10.0,North,21.9,26.5,N/A,,Clear,360,2011-11-15 19:35:00
1:55 PM,53.6,23.0,30,29.82,10.0,North,19.6,25.3,N/A,,Clear,360,2011-11-15 19:55:00
2:15 PM,53.6,23.0,30,29.83,10.0,North,19.6,26.5,N/A,,Clear,10,2011-11-15 20:15:00
2:35 PM,51.8,24.8,35,29.84,10.0,North,21.9,27.6,N/A,,Clear,350,2011-11-15 20:35:00
2:55 PM,51.8,26.6,38,29.85,10.0,North,16.1,25.3,N/A,,Clear,350,2011-11-15 20:55:00
3:15 PM,51.8,26.6,38,29.86,10.0,NNW,12.7,-,N/A,,Clear,340,2011-11-15 21:15:00
3:35 PM,51.8,24.8,35,29.87,10.0,NNW,17.3,21.9,N/A,,Clear,340,2011-11-15 21:35:00
3:55 PM,50.0,23.0,35,29.88,10.0,NNW,20.7,27.6,N/A,,Clear,340,2011-11-15 21:55:00
4:15 PM,50.0,23.0,35,29.89,10.0,NNW,16.1,20.7,N/A,,Clear,340,2011-11-15 22:15:00
4:35 PM,48.2,21.2,34,29.90,10.0,North,17.3,23.0,N/A,,Clear,350,2011-11-15 22:35:00
4:55 PM,46.4,23.0,40,29.91,10.0,North,13.8,-,N/A,,Clear,360,2011-11-15 22:55:00
5:15 PM,42.8,23.0,46,29.92,10.0,North,11.5,-,N/A,,Clear,350,2011-11-15 23:15:00
5:35 PM,42.8,23.0,46,29.94,10.0,North,9.2,-,N/A,,Clear,350,2011-11-15 23:35:00
5:55 PM,41.0,23.0,49,29.95,10.0,NNW,9.2,-,N/A,,Clear,340,2011-11-15 23:55:00
6:15 PM,37.4,23.0,56,29.96,10.0,NNW,8.1,-,N/A,,Clear,340,2011-11-16 00:15:00
6:35 PM,37.4,23.0,56,29.97,10.0,NNW,9.2,-,N/A,,Clear,340,2011-11-16 00:35:00
6:55 PM,37.4,21.2,52,29.98,10.0,NNW,8.1,-,N/A,,Clear,340,2011-11-16 00:55:00
7:15 PM,35.6,23.0,60,29.99,10.0,NNW,9.2,-,N/A,,Clear,340,2011-11-16 01:15:00
7:35 PM,33.8,21.2,60,30.00,10.0,NNW,6.9,-,N/A,,Clear,330,2011-11-16 01:35:00
7:55 PM,32.0,21.2,64,30.02,10.0,NNW,5.8,-,N/A,,Clear,340,2011-11-16 01:55:00
8:15 PM,33.8,21.2,60,30.02,10.0,North,4.6,-,N/A,,Clear,360,2011-11-16 02:15:00
8:35 PM,32.0,21.2,64,30.02,10.0,North,5.8,-,N/A,,Clear,360,2011-11-16 02:35:00
8:55 PM,32.0,21.2,64,30.03,10.0,NNW,4.6,-,N/A,,Clear,330,2011-11-16 02:55:00
9:15 PM,32.0,23.0,69,30.03,10.0,NW,4.6,-,N/A,,Clear,320,2011-11-16 03:15:00
9:35 PM,32.0,23.0,69,30.04,10.0,NNW,5.8,-,N/A,,Clear,330,2011-11-16 03:35:00
9:55 PM,30.2,21.2,69,30.04,10.0,NW,6.9,-,N/A,,Clear,320,2011-11-16 03:55:00
10:15 PM,30.2,21.2,69,30.05,10.0,NNW,8.1,-,N/A,,Clear,340,2011-11-16 04:15:00
10:35 PM,32.0,19.4,60,30.06,10.0,NNW,4.6,-,N/A,,Clear,330,2011-11-16 04:35:00
10:55 PM,32.0,17.6,55,30.07,10.0,North,3.5,-,N/A,,Clear,360,2011-11-16 04:55:00
11:15 PM,30.2,17.6,60,30.08,10.0,Calm,Calm,-,N/A,,Clear,0,2011-11-16 05:15:00
11:35 PM,30.2,17.6,60,30.09,10.0,Calm,Calm,-,N/A,,Clear,0,2011-11-16 05:35:00
11:55 PM,30.2,19.4,64,30.09,10.0,NW,4.6,-,N/A,,Clear,310,2011-11-16 05:55:00